カタログに戻る

STARLINK-35524

運用中通信VLEO
NORAD 65914·PAYLOAD·🇺🇸 United States

打ち上げ Oct 8, 2025 から Vandenberg Space Force Base

Loading…

次のパス (今後24時間)

TLE

最新Source: CelesTrak SupGP

元期: Sep 14, 2026, 22:43 UTC

1 65914C 25225E   26257.94701389 -.00008518  00000+0 -25170-3 0  2572
2 65914  53.1596   3.7215 0001338  82.7411 319.0400 15.34389019    13

AllMySatでSTARLINK-35524をリアルタイム追跡

Download on the App Store